Location: Middle Street
(51.7167°N, 0.0333°E)
Time: 23:57:24
(UTC+00:00)

X-37B - Pass Details

Date: 20 January 2021
Orbit: 383 x 391 km, 45.0° (Epoch: 27 February)

Event Time Altitude Azimuth Distance (km) Brightness Sun altitude
Rises 19:04:38 0° 229° (SW) 2,271 5.2 -23.7°
Reaches altitude 10° 19:07:07 10° 209° (SSW) 1,419 3.8 -24.1°
Enters shadow 19:07:36 12° 203° (SSW) 1,286 3.5 -24.2°
